Powrót do katalogu

STARLINK-2255

AktywnyŁącznośćVLEO
NORAD 48597·PAYLOAD·🇺🇸 United States

Wystrzelony May 15, 2021 z Cape Canaveral Space Force Station

Loading…

Następne Przeloty (najbliższe 24 godziny)

TLE

ŚwieżeSource: CelesTrak SupGP

Epoka: Sep 14, 2026, 19:53 UTC

1 48597C 21041AW  26257.82895833 -.00023115  00000+0 -74302-3 0  2578
2 48597  53.1596 339.3084 0001062  84.5197 201.0488 15.31726393    11

Śledź STARLINK-2255 w czasie rzeczywistym z AllMySat

Download on the App Store